Location: Baia Mare
(47.6567°N, 23.5850°E)
Time: 21:36:48
(UTC+03:00)

ISS - Pass Details

Date: 29 March 2018
Orbit: 402 x 408 km, 51.6° (Epoch: 22 July)

Event Time Altitude Azimuth Distance (km) Brightness Sun altitude
Rises 20:33:30 0° 247° (WSW) 2,345 1.0 -7.9°
Reaches altitude 10° 20:35:35 10° 248° (WSW) 1,487 -0.1 -8.2°
Maximum altitude 20:38:55 84° 336° (NNW) 423 -3.7 -8.7°
Drops below altitude 10° 20:42:17 10° 66° (ENE) 1,497 -1.4 -9.3°
Enters shadow 20:42:41 - 66° (ENE) 1,660 -1.2 -9.4°
